Location: Newark
(32.9167°N, 112.9667°W)
Time: 14:37:24
(UTC+00:00)

N. Korean satellite - Visible Passes

Search period start: 11 December 2019 00:00
Search period end: 21 December 2019 00:00
Orbit: 455 x 506 km, 97.2° (Epoch: 10 December)

Date Brightness Start Highest point End Pass type
(mag) Time Alt. Az. Time Alt. Az. Time Alt. Az.
11 Dec 7.9 01:00:58 10° S 01:04:32 46° W 01:08:07 10° NNW visible
11 Dec 9.6 12:32:36 10° NE 12:34:56 17° E 12:37:14 10° SE visible
12 Dec 6.8 13:39:35 10° N 13:42:55 42° WNW 13:46:11 10° SSW visible
13 Dec 10.1 01:45:38 10° WSW 01:47:11 12° W 01:48:46 10° WNW visible
13 Dec 6.6 13:14:03 10° NNE 13:17:32 74° E 13:20:57 10° S visible
14 Dec 9.1 01:18:29 10° SSW 01:21:39 26° W 01:24:48 10° NW visible
14 Dec 8.6 12:48:59 10° NE 12:52:03 29° E 12:55:04 10° SSE visible
15 Dec 7.3 00:52:31 10° S 00:56:11 62° W 00:59:50 10° NNW visible
15 Dec 9.9 12:24:51 10° ENE 12:26:30 13° E 12:28:07 10° ESE visible
15 Dec 7.6 13:57:01 10° NNW 13:59:51 24° WNW 14:02:40 10° SW visible
16 Dec 6.4 13:31:08 10° N 13:34:32 57° WNW 13:37:53 10° SSW visible
17 Dec 9.8 01:36:30 10° SW 01:38:47 16° W 01:41:04 10° NW visible
17 Dec 7.2 13:05:43 10° NNE 13:09:07 53° E 13:12:27 10° S visible
18 Dec 8.6 01:09:53 10° SSW 01:13:15 34° W 01:16:37 10° NNW visible
18 Dec 9.1 12:40:51 10° NE 12:43:36 22° E 12:46:19 10° SSE visible
19 Dec 7.2 13:48:25 10° N 13:51:30 31° WNW 13:54:32 10° SW visible
20 Dec 6.3 13:22:41 10° N 13:26:07 79° WNW 13:29:31 10° SSW visible
